ZY-1 02D

导读

ZY-1 02D是中国于2019年9月12日发射的资源卫星,属于中国资源卫星系列,主要用于国土资源调查、监测与管理,可获取高分辨率光学遥感数据,为农业、林业、环保、防灾减灾等多个领域提供可靠的遥感信息支撑,推动我国空间对地观测能力提升。

Basic Information
目录编号:
44528
目录名称:
ZY-1 02D
国际标识:
2019-059A
轨道中心:
EARTH
卫星名称:
ZY-1 02D
卫星全名:
--
卫星状态:
在轨 (已飞行2470 天)
发射日期:
2019-09-12 UTC
国别 :
中国 (CN)
星等 :
--
Orbit Information
数据来源 国际轨道数据 AOE轨道数据
星历时间 2026-06-17T19:41:51+0800
6小时前
查看轨道信息
2026-06-15T06:00:00+0800
2天前
查看轨道信息
半长轴 7151.371km 7151.697km
偏心率 0.0002726 0.0001332
轨道倾角 98.452° 98.336°
近地点辐角 63.817° 66.779°
升交点赤经 229.959° 227.501°
平近点角 296.330° 335.574°
近地点 771.284km 772.607km
远地点 775.184km 774.513km
周期 100.310分钟 100.317分钟
每日圈数 14.355516 14.354535
Detailed Information
使用方式:
暂无
2D Orbit Map
3D Orbit Map
Orbit Altitude Analysis Chart
Orbit Inclination Analysis Chart
Orbit Comprehensive Analysis Chart
View Comprehensive Chart